Time,TemperatureF,DewpointF,PressureIn,WindDirection,WindDirectionDegrees,WindSpeedMPH,WindSpeedGustMPH,Humidity,HourlyPrecipIn,Conditions,Clouds,dailyrainin,SoftwareType,DateUTC
2013-01-17 00:05:00,35.2,34.0,29.85,SW,236,2.0,5.0,94,0.01,,,0.00,weatherlink.com 1.10,2013-01-17 05:05:00,
2013-01-17 00:20:00,35.3,34.0,29.86,SE,130,0.0,7.0,94,0.01,,,0.00,weatherlink.com 1.10,2013-01-17 05:20:00,
2013-01-17 00:35:00,35.4,34.0,29.86,WNW,294,3.0,6.0,94,0.01,,,0.00,weatherlink.com 1.10,2013-01-17 05:35:00,
2013-01-17 00:50:00,35.6,34.0,29.87,WSW,257,1.0,5.0,94,0.00,,,0.00,weatherlink.com 1.10,2013-01-17 05:50:00,
2013-01-17 01:05:00,35.7,34.0,29.86,SW,236,1.0,7.0,94,0.00,,,0.00,weatherlink.com 1.10,2013-01-17 06:05:00,
2013-01-17 01:20:00,36.0,34.0,29.87,WNW,290,1.0,8.0,93,0.00,,,0.00,weatherlink.com 1.10,2013-01-17 06:20:00,
2013-01-17 01:35:00,35.9,34.0,29.87,West,267,3.0,8.0,93,0.01,,,0.01,weatherlink.com 1.10,2013-01-17 06:35:00,
2013-01-17 01:50:00,35.9,34.0,29.86,South,183,3.0,7.0,93,0.01,,,0.01,weatherlink.com 1.10,2013-01-17 06:50:00,
2013-01-17 02:05:00,35.9,34.0,29.86,West,260,1.0,7.0,92,0.01,,,0.01,weatherlink.com 1.10,2013-01-17 07:05:00,
2013-01-17 02:20:00,35.9,34.0,29.87,West,278,2.0,10.0,92,0.01,,,0.01,weatherlink.com 1.10,2013-01-17 07:20:00,
2013-01-17 02:35:00,35.8,34.0,29.87,WSW,252,3.0,6.0,92,0.00,,,0.01,weatherlink.com 1.10,2013-01-17 07:35:00,
2013-01-17 02:50:00,35.9,34.0,29.86,West,260,7.0,8.0,92,0.00,,,0.01,weatherlink.com 1.10,2013-01-17 07:50:00,
2013-01-17 03:05:00,35.9,34.0,29.87,WSW,239,2.0,5.0,91,0.00,,,0.01,weatherlink.com 1.10,2013-01-17 08:05:00,
2013-01-17 03:20:00,36.1,34.0,29.86,WSW,246,2.0,4.0,90,0.00,,,0.01,weatherlink.com 1.10,2013-01-17 08:20:00,
2013-01-17 03:35:00,36.1,34.0,29.86,West,277,3.0,5.0,90,0.00,,,0.01,weatherlink.com 1.10,2013-01-17 08:35:00,
2013-01-17 03:50:00,36.3,34.0,29.88,West,281,0.0,8.0,90,0.01,,,0.02,weatherlink.com 1.10,2013-01-17 08:50:00,
2013-01-17 04:06:00,36.5,34.0,29.87,WSW,239,1.0,5.0,89,0.01,,,0.02,weatherlink.com 1.10,2013-01-17 09:06:00,
2013-01-17 04:21:00,37.1,34.0,29.87,SW,222,2.0,13.0,88,0.01,,,0.02,weatherlink.com 1.10,2013-01-17 09:21:00,
2013-01-17 04:37:00,37.4,34.0,29.87,West,281,4.0,8.0,87,0.01,,,0.02,weatherlink.com 1.10,2013-01-17 09:37:00,
2013-01-17 04:51:00,37.3,34.0,29.86,WSW,257,1.0,8.0,86,0.00,,,0.02,weatherlink.com 1.10,2013-01-17 09:51:00,
2013-01-17 05:06:00,37.1,33.0,29.85,WSW,238,3.0,7.0,85,0.00,,,0.02,weatherlink.com 1.10,2013-01-17 10:06:00,
2013-01-17 05:21:00,36.9,33.0,29.87,West,271,4.0,8.0,85,0.00,,,0.02,weatherlink.com 1.10,2013-01-17 10:21:00,
2013-01-17 05:36:00,37.1,33.0,29.88,WSW,242,7.0,7.0,84,0.00,,,0.02,weatherlink.com 1.10,2013-01-17 10:36:00,
2013-01-17 05:51:00,37.2,33.0,29.88,SW,222,3.0,8.0,84,0.00,,,0.02,weatherlink.com 1.10,2013-01-17 10:51:00,
2013-01-17 06:06:00,37.2,33.0,29.89,West,269,3.0,8.0,83,0.00,,,0.02,weatherlink.com 1.10,2013-01-17 11:06:00,
2013-01-17 06:21:00,36.8,32.0,29.90,WSW,248,4.0,7.0,83,0.00,,,0.02,weatherlink.com 1.10,2013-01-17 11:21:00,
2013-01-17 06:36:00,36.4,32.0,29.91,WNW,297,2.0,7.0,84,0.00,,,0.02,weatherlink.com 1.10,2013-01-17 11:36:00,
2013-01-17 06:51:00,36.1,32.0,29.92,WNW,283,4.0,8.0,84,0.00,,,0.02,weatherlink.com 1.10,2013-01-17 11:51:00,
2013-01-17 07:06:00,35.8,32.0,29.91,West,271,1.0,4.0,85,0.00,,,0.02,weatherlink.com 1.10,2013-01-17 12:06:00,
2013-01-17 07:21:00,35.7,31.0,29.92,West,259,5.0,5.0,84,0.00,,,0.02,weatherlink.com 1.10,2013-01-17 12:21:00,
2013-01-17 07:36:00,35.9,32.0,29.93,West,263,1.0,6.0,84,0.00,,,0.02,weatherlink.com 1.10,2013-01-17 12:36:00,
2013-01-17 07:51:00,36.5,32.0,29.95,SSW,208,3.0,6.0,83,0.00,,,0.02,weatherlink.com 1.10,2013-01-17 12:51:00,
2013-01-17 08:06:00,36.7,32.0,29.95,WSW,244,2.0,7.0,83,0.00,,,0.02,weatherlink.com 1.10,2013-01-17 13:06:00,
2013-01-17 08:21:00,37.0,32.0,29.97,WSW,255,5.0,10.0,81,0.00,,,0.02,weatherlink.com 1.10,2013-01-17 13:21:00,
2013-01-17 08:36:00,37.2,32.0,29.98,WNW,290,4.0,4.0,81,0.00,,,0.02,weatherlink.com 1.10,2013-01-17 13:36:00,
2013-01-17 08:51:00,37.6,32.0,29.99,South,188,1.0,9.0,79,0.00,,,0.02,weatherlink.com 1.10,2013-01-17 13:51:00,
2013-01-17 09:06:00,37.8,32.0,29.98,NNE,22,0.0,6.0,79,0.00,,,0.02,weatherlink.com 1.10,2013-01-17 14:06:00,
2013-01-17 09:21:00,37.7,31.0,29.99,WNW,290,1.0,2.0,78,0.00,,,0.02,weatherlink.com 1.10,2013-01-17 14:21:00,
2013-01-17 09:36:00,38.3,32.0,29.99,SSW,204,1.0,5.0,77,0.00,,,0.02,weatherlink.com 1.10,2013-01-17 14:36:00,
2013-01-17 10:06:00,38.3,31.0,30.00,West,278,4.0,8.0,74,0.00,,,0.02,weatherlink.com 1.10,2013-01-17 15:06:00,
2013-01-17 10:21:00,38.7,31.0,30.00,West,264,5.0,7.0,73,0.00,,,0.02,weatherlink.com 1.10,2013-01-17 15:21:00,
2013-01-17 10:36:00,39.3,31.0,30.00,West,281,2.0,5.0,72,0.00,,,0.02,weatherlink.com 1.10,2013-01-17 15:36:00,
2013-01-17 10:51:00,40.2,31.0,29.99,North,356,1.0,8.0,69,0.00,,,0.02,weatherlink.com 1.10,2013-01-17 15:51:00,
2013-01-17 11:06:00,40.4,30.0,29.98,WNW,290,3.0,6.0,67,0.00,,,0.02,weatherlink.com 1.10,2013-01-17 16:06:00,
2013-01-17 11:21:00,40.1,30.0,29.99,WNW,283,4.0,8.0,67,0.00,,,0.02,weatherlink.com 1.10,2013-01-17 16:21:00,
2013-01-17 11:36:00,40.6,30.0,29.98,West,271,5.0,9.0,66,0.00,,,0.02,weatherlink.com 1.10,2013-01-17 16:36:00,
2013-01-17 11:52:00,40.6,30.0,29.98,West,267,6.0,9.0,66,0.00,,,0.02,weatherlink.com 1.10,2013-01-17 16:52:00,
2013-01-17 12:07:00,40.7,30.0,29.98,SW,228,4.0,11.0,66,0.00,,,0.02,weatherlink.com 1.10,2013-01-17 17:07:00,
2013-01-17 12:22:00,40.9,30.0,29.98,West,259,5.0,10.0,66,0.00,,,0.02,weatherlink.com 1.10,2013-01-17 17:22:00,
2013-01-17 12:37:00,42.2,31.0,29.98,West,280,3.0,9.0,64,0.00,,,0.02,weatherlink.com 1.10,2013-01-17 17:37:00,
2013-01-17 12:52:00,42.0,30.0,29.99,WNW,302,4.0,9.0,62,0.00,,,0.02,weatherlink.com 1.10,2013-01-17 17:52:00,
2013-01-17 13:07:00,42.1,29.0,29.98,WSW,256,1.0,12.0,61,0.00,,,0.02,weatherlink.com 1.10,2013-01-17 18:07:00,
2013-01-17 13:22:00,42.4,29.0,29.98,WNW,284,4.0,11.0,60,0.00,,,0.02,weatherlink.com 1.10,2013-01-17 18:22:00,
2013-01-17 13:37:00,43.5,30.0,29.98,WNW,295,3.0,9.0,59,0.00,,,0.02,weatherlink.com 1.10,2013-01-17 18:37:00,
2013-01-17 13:52:00,43.8,30.0,30.00,NNW,333,2.0,11.0,58,0.00,,,0.02,weatherlink.com 1.10,2013-01-17 18:52:00,
2013-01-17 14:07:00,42.7,29.0,29.98,WNW,293,0.0,10.0,59,0.00,,,0.02,weatherlink.com 1.10,2013-01-17 19:07:00,
2013-01-17 14:22:00,42.9,28.0,29.99,NW,309,2.0,12.0,56,0.00,,,0.02,weatherlink.com 1.10,2013-01-17 19:22:00,
2013-01-17 14:37:00,42.9,28.0,29.99,NW,304,2.0,8.0,55,0.00,,,0.02,weatherlink.com 1.10,2013-01-17 19:37:00,
2013-01-17 14:52:00,43.0,29.0,30.00,WNW,301,3.0,12.0,57,0.00,,,0.02,weatherlink.com 1.10,2013-01-17 19:52:00,
2013-01-17 15:07:00,43.0,29.0,29.99,NW,305,1.0,7.0,57,0.00,,,0.02,weatherlink.com 1.10,2013-01-17 20:07:00,
2013-01-17 15:37:00,41.7,29.0,30.00,WNW,297,0.0,6.0,60,0.00,,,0.02,weatherlink.com 1.10,2013-01-17 20:37:00,
2013-01-17 15:52:00,41.5,29.0,30.01,North,358,0.0,6.0,61,0.00,,,0.02,weatherlink.com 1.10,2013-01-17 20:52:00,
2013-01-17 16:07:00,41.1,29.0,30.01,WNW,292,0.0,2.0,62,0.00,,,0.02,weatherlink.com 1.10,2013-01-17 21:07:00,
2013-01-17 16:22:00,40.8,29.0,30.02,NE,43,4.0,4.0,63,0.00,,,0.02,weatherlink.com 1.10,2013-01-17 21:22:00,
2013-01-17 16:37:00,40.5,29.0,30.02,NW,318,0.0,2.0,63,0.00,,,0.02,weatherlink.com 1.10,2013-01-17 21:37:00,
2013-01-17 16:52:00,40.2,29.0,30.03,West,270,0.0,2.0,64,0.00,,,0.02,weatherlink.com 1.10,2013-01-17 21:52:00,
2013-01-17 17:07:00,39.9,29.0,30.02,NE,43,0.0,3.0,65,0.00,,,0.02,weatherlink.com 1.10,2013-01-17 22:07:00,
2013-01-17 17:22:00,39.7,29.0,30.04,WNW,288,0.0,1.0,65,0.00,,,0.02,weatherlink.com 1.10,2013-01-17 22:22:00,
2013-01-17 17:37:00,39.4,29.0,30.04,WNW,303,0.0,2.0,66,0.00,,,0.02,weatherlink.com 1.10,2013-01-17 22:37:00,
2013-01-17 17:52:00,39.3,28.0,30.05,NNE,20,0.0,3.0,65,0.00,,,0.02,weatherlink.com 1.10,2013-01-17 22:52:00,
2013-01-17 18:07:00,38.9,28.0,30.05,WNW,284,0.0,3.0,66,0.00,,,0.02,weatherlink.com 1.10,2013-01-17 23:07:00,
2013-01-17 18:22:00,38.7,29.0,30.05,WNW,297,0.0,2.0,67,0.00,,,0.02,weatherlink.com 1.10,2013-01-17 23:22:00,
2013-01-17 18:37:00,38.4,28.0,30.05,NW,324,0.0,1.0,67,0.00,,,0.02,weatherlink.com 1.10,2013-01-17 23:37:00,
2013-01-17 19:07:00,38.3,29.0,30.05,North,360,2.0,2.0,68,0.00,,,0.02,weatherlink.com 1.10,2013-01-18 00:07:00,
2013-01-17 19:22:00,38.1,28.0,30.05,NNW,331,4.0,6.0,66,0.00,,,0.02,weatherlink.com 1.10,2013-01-18 00:22:00,
2013-01-17 19:37:00,37.8,27.0,30.06,NE,50,3.0,8.0,65,0.00,,,0.02,weatherlink.com 1.10,2013-01-18 00:37:00,
2013-01-17 19:52:00,37.3,26.0,30.05,North,350,4.0,6.0,64,0.00,,,0.02,weatherlink.com 1.10,2013-01-18 00:52:00,
2013-01-17 20:07:00,36.9,25.0,30.05,NE,37,2.0,8.0,63,0.00,,,0.02,weatherlink.com 1.10,2013-01-18 01:07:00,
2013-01-17 20:22:00,36.4,24.0,30.05,NW,311,2.0,7.0,62,0.00,,,0.02,weatherlink.com 1.10,2013-01-18 01:22:00,
2013-01-17 20:37:00,36.0,24.0,30.05,NNW,348,0.0,7.0,62,0.00,,,0.02,weatherlink.com 1.10,2013-01-18 01:37:00,
2013-01-17 20:52:00,35.5,21.0,30.06,NNE,19,2.0,10.0,57,0.00,,,0.02,weatherlink.com 1.10,2013-01-18 01:52:00,
2013-01-17 21:07:00,35.0,21.0,30.05,NW,312,2.0,12.0,58,0.00,,,0.02,weatherlink.com 1.10,2013-01-18 02:07:00,
2013-01-17 21:22:00,34.5,20.0,30.04,NE,42,3.0,8.0,55,0.00,,,0.02,weatherlink.com 1.10,2013-01-18 02:22:00,
2013-01-17 21:37:00,34.1,18.0,30.04,NE,35,2.0,10.0,53,0.00,,,0.02,weatherlink.com 1.10,2013-01-18 02:37:00,
2013-01-17 21:52:00,33.9,19.0,30.04,NW,320,3.0,8.0,54,0.00,,,0.02,weatherlink.com 1.10,2013-01-18 02:52:00,
2013-01-17 22:07:00,33.8,19.0,30.04,NNW,330,4.0,10.0,55,0.00,,,0.02,weatherlink.com 1.10,2013-01-18 03:07:00,
2013-01-17 22:23:00,33.6,20.0,30.04,NNW,330,1.0,9.0,57,0.00,,,0.02,weatherlink.com 1.10,2013-01-18 03:23:00,
2013-01-17 22:38:00,33.3,20.0,30.02,ENE,68,2.0,8.0,58,0.00,,,0.02,weatherlink.com 1.10,2013-01-18 03:38:00,
2013-01-17 22:53:00,33.1,20.0,29.98,NNE,12,4.0,9.0,60,0.00,,,0.02,weatherlink.com 1.10,2013-01-18 03:53:00,
2013-01-17 23:08:00,33.0,20.0,30.00,NE,44,2.0,8.0,59,0.00,,,0.02,weatherlink.com 1.10,2013-01-18 04:08:00,
2013-01-17 23:23:00,32.9,17.0,30.02,NW,309,6.0,10.0,53,0.00,,,0.02,weatherlink.com 1.10,2013-01-18 04:23:00,
2013-01-17 23:38:00,32.8,17.0,30.01,WNW,302,4.0,7.0,53,0.00,,,0.02,weatherlink.com 1.10,2013-01-18 04:38:00,
2013-01-17 23:53:00,32.7,18.0,30.03,North,4,0.0,6.0,54,0.00,,,0.02,weatherlink.com 1.10,2013-01-18 04:53:00,